• In Hungary
  • List of Countries
  • For 7 days
  • Water Temperature
  • Satellite Maps
  • Weather Map
  • News
  • Weather Widgets
  • user-avatar
    Login

    Hourly Weather Prigorodnyy

    Today, 23 May, Wednesday

    Time Temperature Precipitation Wind Pressure Humidity
    00:00 +17°C° 0.1 mm 3 mps 759 mmHg 78%
    01:00 +17°C° 0.2 mm 3 mps 759 mmHg 79%
    02:00 +16°C° 0.2 mm 2 mps 758 mmHg 81%
    03:00 +17°C° 0 mm 3 mps 758 mmHg 82%
    04:00 +17°C° 0.4 mm 3 mps 758 mmHg 83%
    05:00 +17°C° 0.4 mm 3 mps 758 mmHg 84%
    06:00 +17°C° 0.4 mm 3 mps 758 mmHg 85%
    07:00 +18°C° 0.5 mm 3 mps 758 mmHg 83%
    08:00 +19°C° 0.5 mm 3 mps 758 mmHg 80%
    09:00 +20°C° 0 mm 3 mps 758 mmHg 76%
    10:00 +21°C° 0.1 mm 3 mps 758 mmHg 77%
    11:00 +21°C° 0.1 mm 3 mps 758 mmHg 77%
    12:00 +21°C° 0.1 mm 3 mps 758 mmHg 78%
    13:00 +23°C° 0 mm 2 mps 757 mmHg 74%
    14:00 +24°C° 0 mm 2 mps 757 mmHg 71%
    15:00 +24°C° 0 mm 2 mps 757 mmHg 68%
    16:00 +24°C° 0 mm 2 mps 756 mmHg 72%
    17:00 +24°C° 0 mm 2 mps 756 mmHg 75%
    18:00 +23°C° 0 mm 2 mps 756 mmHg 79%
    19:00 +22°C° 0.1 mm 1 mps 756 mmHg 82%
    20:00 +21°C° 0.1 mm 1 mps 756 mmHg 86%
    21:00 +20°C° 0.1 mm 1 mps 756 mmHg 89%
    22:00 +20°C° 0.1 mm 1 mps 756 mmHg 90%
    23:00 +20°C° 0.1 mm 1 mps 756 mmHg 91%

    Tomorrow, 24 May, Thursday

    Time Temperature Precipitation Wind Pressure Humidity
    00:00 +18°C° 0.1 mm 2 mps 755 mmHg 92%
    01:00 +18°C° 1.2 mm 2 mps 755 mmHg 91%
    02:00 +18°C° 1.2 mm 2 mps 755 mmHg 91%
    03:00 +17°C° 1.2 mm 3 mps 754 mmHg 91%
    04:00 +17°C° 0.3 mm 3 mps 754 mmHg 91%
    05:00 +17°C° 0.3 mm 3 mps 753 mmHg 91%
    06:00 +17°C° 0.3 mm 3 mps 753 mmHg 91%
    07:00 +17°C° 0.3 mm 3 mps 753 mmHg 90%
    08:00 +18°C° 0.3 mm 3 mps 753 mmHg 88%
    09:00 +18°C° 0.3 mm 3 mps 753 mmHg 87%
    10:00 +18°C° 0.4 mm 3 mps 753 mmHg 87%
    11:00 +19°C° 0.4 mm 3 mps 753 mmHg 86%
    12:00 +19°C° 0.4 mm 3 mps 752 mmHg 86%
    13:00 +20°C° 0.1 mm 4 mps 752 mmHg 85%
    14:00 +20°C° 0.1 mm 4 mps 752 mmHg 84%
    15:00 +20°C° 0.1 mm 4 mps 752 mmHg 83%
    16:00 +20°C° 0.2 mm 4 mps 751 mmHg 83%
    17:00 +20°C° 0.2 mm 5 mps 751 mmHg 84%
    18:00 +20°C° 0.2 mm 5 mps 751 mmHg 85%
    19:00 +19°C° 0.3 mm 5 mps 751 mmHg 88%
    20:00 +18°C° 0.3 mm 4 mps 751 mmHg 90%
    21:00 +18°C° 0.3 mm 4 mps 751 mmHg 93%
    22:00 +17°C° 0 mm 4 mps 751 mmHg 92%
    23:00 +16°C° 0 mm 5 mps 751 mmHg 92%

    Day after tomorrow, 25 May, Friday

    Time Temperature Precipitation Wind Pressure Humidity
    00:00 +16°C° 0 mm 5 mps 750 mmHg 91%
    01:00 +15°C° 0 mm 5 mps 751 mmHg 91%
    02:00 +15°C° 0 mm 5 mps 751 mmHg 91%
    03:00 +14°C° 0 mm 5 mps 751 mmHg 91%
    04:00 +14°C° 0 mm 6 mps 751 mmHg 90%
    05:00 +14°C° 0 mm 6 mps 752 mmHg 89%
    06:00 +14°C° 0 mm 7 mps 752 mmHg 88%
    07:00 +14°C° 0 mm 7 mps 753 mmHg 82%
    08:00 +15°C° 0 mm 7 mps 753 mmHg 76%
    09:00 +15°C° 0 mm 7 mps 754 mmHg 70%
    10:00 +16°C° 0 mm 7 mps 754 mmHg 65%
    11:00 +16°C° 0 mm 8 mps 755 mmHg 59%
    12:00 +17°C° 0 mm 8 mps 755 mmHg 53%
    13:00 +17°C° 0 mm 8 mps 756 mmHg 52%
    14:00 +17°C° 0 mm 8 mps 756 mmHg 51%
    15:00 +17°C° 0 mm 8 mps 756 mmHg 50%
    16:00 +16°C° 0 mm 7 mps 757 mmHg 52%
    17:00 +15°C° 0 mm 7 mps 757 mmHg 54%
    18:00 +14°C° 0 mm 6 mps 757 mmHg 57%
    19:00 +13°C° 0 mm 5 mps 758 mmHg 58%
    20:00 +10°C° 0 mm 5 mps 759 mmHg 59%
    21:00 +10°C° 0 mm 4 mps 759 mmHg 60%
    22:00 +8°C° 0 mm 4 mps 760 mmHg 61%
    23:00 +8°C° 0 mm 4 mps 760 mmHg 62%

    26 May, Saturday

    Time Temperature Precipitation Wind Pressure Humidity
    00:00 +7°C° 0 mm 4 mps 761 mmHg 63%
    01:00 +7°C° 0 mm 3 mps 761 mmHg 65%
    02:00 +7°C° 0 mm 3 mps 761 mmHg 67%
    03:00 +5°C° 0 mm 3 mps 762 mmHg 68%
    04:00 +7°C° 0 mm 3 mps 762 mmHg 68%
    05:00 +7°C° 0 mm 3 mps 763 mmHg 67%
    06:00 +6°C° 0 mm 4 mps 763 mmHg 66%
    07:00 +8°C° 0 mm 4 mps 764 mmHg 60%
    08:00 +10°C° 0 mm 5 mps 764 mmHg 54%
    09:00 +12°C° 0 mm 5 mps 764 mmHg 48%
    10:00 +13°C° 0 mm 5 mps 764 mmHg 47%
    11:00 +14°C° 0 mm 5 mps 764 mmHg 46%
    12:00 +15°C° 0 mm 5 mps 764 mmHg 44%
    13:00 +16°C° 0 mm 5 mps 764 mmHg 44%
    14:00 +16°C° 0 mm 5 mps 764 mmHg 44%
    15:00 +18°C° 0 mm 4 mps 764 mmHg 44%
    16:00 +17°C° 0 mm 4 mps 763 mmHg 47%
    17:00 +17°C° 0 mm 3 mps 763 mmHg 51%
    18:00 +17°C° 0 mm 2 mps 763 mmHg 55%
    19:00 +15°C° 0 mm 2 mps 763 mmHg 58%
    20:00 +13°C° 0 mm 1 mps 763 mmHg 62%
    21:00 +10°C° 0 mm 0 mps 763 mmHg 65%
    22:00 +11°C° 0 mm 1 mps 763 mmHg 66%
    23:00 +11°C° 0 mm 1 mps 763 mmHg 66%

    27 May, Sunday

    Time Temperature Precipitation Wind Pressure Humidity
    00:00 +10°C° 0 mm 1 mps 763 mmHg 66%
    01:00 +10°C° 0 mm 1 mps 763 mmHg 68%
    02:00 +9°C° 0 mm 2 mps 763 mmHg 70%
    03:00 +9°C° 0 mm 2 mps 763 mmHg 72%
    04:00 +9°C° 0 mm 2 mps 763 mmHg 74%
    05:00 +10°C° 0 mm 2 mps 763 mmHg 76%
    06:00 +11°C° 0 mm 3 mps 763 mmHg 78%
    07:00 +13°C° 0 mm 3 mps 762 mmHg 74%
    08:00 +17°C° 0 mm 3 mps 762 mmHg 70%
    09:00 +19°C° 0 mm 3 mps 762 mmHg 67%
    10:00 +20°C° 0 mm 3 mps 761 mmHg 62%
    11:00 +22°C° 0 mm 4 mps 761 mmHg 57%
    12:00 +23°C° 0 mm 4 mps 761 mmHg 52%
    13:00 +23°C° 0 mm 4 mps 760 mmHg 52%
    14:00 +25°C° 0 mm 5 mps 760 mmHg 52%
    15:00 +25°C° 0 mm 5 mps 759 mmHg 52%
    16:00 +23°C° 0 mm 5 mps 759 mmHg 56%
    17:00 +23°C° 0 mm 4 mps 758 mmHg 61%
    18:00 +22°C° 0 mm 4 mps 758 mmHg 66%
    19:00 +21°C° 0 mm 4 mps 758 mmHg 70%
    20:00 +19°C° 0 mm 4 mps 758 mmHg 74%
    21:00 +17°C° 0 mm 4 mps 757 mmHg 78%
    22:00 +17°C° 0 mm 4 mps 757 mmHg 79%
    23:00 +15°C° 0 mm 4 mps 757 mmHg 79%

    28 May, Monday

    Time Temperature Precipitation Wind Pressure Humidity
    00:00 +15°C° 0 mm 4 mps 757 mmHg 80%
    01:00 +14°C° 0 mm 4 mps 756 mmHg 80%
    02:00 +14°C° 0 mm 4 mps 756 mmHg 81%
    03:00 +14°C° 0 mm 4 mps 756 mmHg 82%
    04:00 +14°C° 0 mm 4 mps 756 mmHg 81%
    05:00 +14°C° 0 mm 4 mps 756 mmHg 80%
    06:00 +14°C° 0 mm 4 mps 755 mmHg 80%
    07:00 +16°C° 0 mm 5 mps 755 mmHg 76%
    08:00 +17°C° 0 mm 5 mps 755 mmHg 73%
    09:00 +20°C° 0 mm 5 mps 755 mmHg 70%
    10:00 +20°C° 0.2 mm 5 mps 755 mmHg 66%
    11:00 +21°C° 0.2 mm 5 mps 754 mmHg 62%
    12:00 +21°C° 0.2 mm 6 mps 754 mmHg 59%
    13:00 +21°C° 0.1 mm 6 mps 754 mmHg 59%
    14:00 +20°C° 0.1 mm 5 mps 754 mmHg 59%
    15:00 +20°C° 0.1 mm 5 mps 754 mmHg 60%
    16:00 +20°C° 0 mm 4 mps 754 mmHg 61%
    17:00 +19°C° 0 mm 4 mps 753 mmHg 63%
    18:00 +19°C° 0 mm 3 mps 753 mmHg 64%
    19:00 +17°C° 0 mm 3 mps 753 mmHg 68%
    20:00 +14°C° 0 mm 3 mps 753 mmHg 71%
    21:00 +14°C° 0 mm 2 mps 753 mmHg 75%
    22:00 +12°C° 0.1 mm 3 mps 753 mmHg 78%
    23:00 +12°C° 0.1 mm 4 mps 753 mmHg 80%
    Show more